Time,TemperatureF,DewpointF,PressureIn,WindDirection,WindDirectionDegrees,WindSpeedMPH,WindSpeedGustMPH,Humidity,HourlyPrecipIn,Conditions,Clouds,dailyrainin,SoftwareType,DateUTC
2013-01-09 00:01:00,26.4,24.4,29.94,NNW,338,4.6,4.6,92,0.00,CLR,,0.00,WeatherDisplay:10.37,2013-01-09 05:01:00,
2013-01-09 00:02:00,26.4,24.4,29.94,NNW,338,4.6,4.6,92,0.00,CLR,,0.00,WeatherDisplay:10.37,2013-01-09 05:02:00,
2013-01-09 00:07:00,26.2,24.2,29.94,North,0,2.6,2.6,92,0.00,CLR,,0.00,WeatherDisplay:10.37,2013-01-09 05:07:00,
2013-01-09 00:12:00,26.1,24.1,29.94,NNW,338,3.5,3.5,92,0.00,CLR,,0.00,WeatherDisplay:10.37,2013-01-09 05:12:00,
2013-01-09 00:17:00,25.9,23.9,29.94,NNW,338,3.5,3.5,92,0.00,CLR,,0.00,WeatherDisplay:10.37,2013-01-09 05:17:00,
2013-01-09 00:22:00,25.9,23.9,29.91,North,0,3.6,3.6,92,0.00,CLR,,0.00,WeatherDisplay:10.37,2013-01-09 05:22:00,
2013-01-09 00:27:00,25.9,23.9,29.91,NNW,338,3.5,3.5,92,0.00,CLR,,0.00,WeatherDisplay:10.37,2013-01-09 05:27:00,
2013-01-09 00:32:00,25.7,23.7,29.91,North,0,2.6,2.6,92,0.00,CLR,,0.00,WeatherDisplay:10.37,2013-01-09 05:32:00,
2013-01-09 00:37:00,25.5,23.5,29.91,NNW,338,3.5,3.5,92,0.00,CLR,,0.00,WeatherDisplay:10.37,2013-01-09 05:37:00,
2013-01-09 00:42:00,25.5,23.8,29.91,NNW,338,3.5,3.5,93,0.00,CLR,,0.00,WeatherDisplay:10.37,2013-01-09 05:42:00,
2013-01-09 00:47:00,25.7,24.0,29.91,North,0,3.5,3.5,93,0.00,CLR,,0.00,WeatherDisplay:10.37,2013-01-09 05:47:00,
2013-01-09 00:52:00,25.7,24.0,29.91,NNE,22,3.5,3.5,93,0.00,CLR,,0.00,WeatherDisplay:10.37,2013-01-09 05:52:00,
2013-01-09 00:57:00,25.7,24.2,29.91,NNW,338,4.6,4.6,94,0.00,CLR,,0.00,WeatherDisplay:10.37,2013-01-09 05:57:00,
2013-01-09 01:02:00,25.9,24.4,29.91,NNW,338,4.6,4.6,94,0.00,CLR,,0.00,WeatherDisplay:10.37,2013-01-09 06:02:00,
2013-01-09 01:07:00,25.9,24.4,29.91,NNE,22,3.5,3.5,94,0.00,CLR,,0.00,WeatherDisplay:10.37,2013-01-09 06:07:00,
2013-01-09 01:12:00,25.7,24.2,29.91,NNW,338,2.4,2.4,94,0.00,CLR,,0.00,WeatherDisplay:10.37,2013-01-09 06:12:00,
2013-01-09 01:17:00,25.5,24.0,29.91,WNW,292,3.5,3.5,94,0.00,CLR,,0.00,WeatherDisplay:10.37,2013-01-09 06:17:00,
2013-01-09 01:22:00,25.3,23.6,29.91,North,0,2.9,2.9,93,0.00,CLR,,0.00,WeatherDisplay:10.37,2013-01-09 06:22:00,
2013-01-09 01:27:00,25.2,22.9,29.91,NNW,338,3.5,3.5,91,0.00,CLR,,0.00,WeatherDisplay:10.37,2013-01-09 06:27:00,
2013-01-09 01:32:00,25.0,22.7,29.91,NNE,22,3.5,3.5,91,0.00,CLR,,0.00,WeatherDisplay:10.37,2013-01-09 06:32:00,
2013-01-09 01:37:00,25.0,23.0,29.91,NNW,338,3.5,3.5,92,0.00,CLR,,0.00,WeatherDisplay:10.37,2013-01-09 06:37:00,
2013-01-09 01:42:00,25.0,23.0,29.91,North,0,4.6,4.6,92,0.00,CLR,,0.00,WeatherDisplay:10.37,2013-01-09 06:42:00,
2013-01-09 01:47:00,25.0,23.2,29.91,NNW,338,3.5,3.5,93,0.00,CLR,,0.00,WeatherDisplay:10.37,2013-01-09 06:47:00,
2013-01-09 01:52:00,25.0,23.2,29.91,NNW,338,4.6,4.6,93,0.00,CLR,,0.00,WeatherDisplay:10.37,2013-01-09 06:52:00,
2013-01-09 01:57:00,25.2,23.4,29.91,NNW,338,3.6,3.6,93,0.00,CLR,,0.00,WeatherDisplay:10.37,2013-01-09 06:57:00,
2013-01-09 02:02:00,25.2,23.7,29.91,NNW,338,4.6,4.6,94,0.00,CLR,,0.00,WeatherDisplay:10.37,2013-01-09 07:02:00,
2013-01-09 02:07:00,25.3,23.9,29.91,NNW,338,3.8,3.8,94,0.00,CLR,,0.00,WeatherDisplay:10.37,2013-01-09 07:07:00,
2013-01-09 02:12:00,25.2,23.7,29.91,NNW,338,3.5,3.6,94,0.00,CLR,,0.00,WeatherDisplay:10.37,2013-01-09 07:12:00,
2013-01-09 02:17:00,25.2,23.7,29.91,NNW,338,3.5,3.5,94,0.00,CLR,,0.00,WeatherDisplay:10.37,2013-01-09 07:17:00,
2013-01-09 02:22:00,25.3,23.9,29.88,NNW,338,3.6,3.6,94,0.00,CLR,,0.00,WeatherDisplay:10.37,2013-01-09 07:22:00,
2013-01-09 02:27:00,25.3,23.9,29.88,NNE,22,3.1,3.1,94,0.00,CLR,,0.00,WeatherDisplay:10.37,2013-01-09 07:27:00,
2013-01-09 02:32:00,25.0,23.2,29.88,WNW,292,3.5,3.5,93,0.00,CLR,,0.00,WeatherDisplay:10.37,2013-01-09 07:32:00,
2013-01-09 02:37:00,24.8,23.1,29.91,NNW,338,3.8,3.8,93,0.00,CLR,,0.00,WeatherDisplay:10.37,2013-01-09 07:37:00,
2013-01-09 02:42:00,24.8,23.1,29.91,NNW,338,3.8,3.8,93,0.00,CLR,,0.00,WeatherDisplay:10.37,2013-01-09 07:42:00,
2013-01-09 02:47:00,24.8,22.8,29.91,NNW,338,3.5,3.5,92,0.00,CLR,,0.00,WeatherDisplay:10.37,2013-01-09 07:47:00,
2013-01-09 02:52:00,24.6,22.6,29.91,NNW,338,2.3,2.4,92,0.00,CLR,,0.00,WeatherDisplay:10.37,2013-01-09 07:52:00,
2013-01-09 02:57:00,24.4,22.5,29.91,NNW,338,3.8,3.8,92,0.00,CLR,,0.00,WeatherDisplay:10.37,2013-01-09 07:57:00,
2013-01-09 03:02:00,24.6,22.6,29.91,NNW,338,3.5,3.5,92,0.00,CLR,,0.00,WeatherDisplay:10.37,2013-01-09 08:02:00,
2013-01-09 03:07:00,24.6,22.6,29.91,WNW,292,3.5,3.5,92,0.00,CLR,,0.00,WeatherDisplay:10.37,2013-01-09 08:07:00,
2013-01-09 03:12:00,24.6,22.4,29.91,NNW,338,2.3,2.3,91,0.00,CLR,,0.00,WeatherDisplay:10.37,2013-01-09 08:12:00,
2013-01-09 03:18:00,24.6,22.4,29.91,WNW,292,0.0,0.0,91,0.00,CLR,,0.00,WeatherDisplay:10.37,2013-01-09 08:18:00,
2013-01-09 03:23:00,24.6,22.1,29.88,NNW,338,1.1,0.0,90,0.00,CLR,,0.00,WeatherDisplay:10.37,2013-01-09 08:23:00,
2013-01-09 03:28:00,24.4,21.9,29.88,North,0,1.1,1.1,90,0.00,CLR,,0.00,WeatherDisplay:10.37,2013-01-09 08:28:00,
2013-01-09 03:33:00,24.1,21.6,29.88,NNW,338,2.3,2.3,90,0.00,CLR,,0.00,WeatherDisplay:10.37,2013-01-09 08:33:00,
2013-01-09 03:38:00,23.7,21.2,29.91,North,0,3.5,3.5,90,0.00,CLR,,0.00,WeatherDisplay:10.37,2013-01-09 08:38:00,
2013-01-09 03:43:00,23.5,21.3,29.91,North,0,3.5,3.5,91,0.00,CLR,,0.00,WeatherDisplay:10.37,2013-01-09 08:43:00,
2013-01-09 03:48:00,23.5,21.3,29.91,NNE,22,3.5,3.5,91,0.00,CLR,,0.00,WeatherDisplay:10.37,2013-01-09 08:48:00,
2013-01-09 03:53:00,23.5,21.6,29.91,North,0,2.6,2.6,92,0.00,CLR,,0.00,WeatherDisplay:10.37,2013-01-09 08:53:00,
2013-01-09 03:58:00,23.5,21.6,29.91,NNE,22,4.6,4.6,92,0.00,CLR,,0.00,WeatherDisplay:10.37,2013-01-09 08:58:00,
2013-01-09 04:03:00,23.5,21.6,29.91,NNE,22,3.5,3.5,92,0.00,CLR,,0.00,WeatherDisplay:10.37,2013-01-09 09:03:00,
2013-01-09 04:08:00,23.5,21.6,29.91,North,0,2.4,2.4,92,0.00,CLR,,0.00,WeatherDisplay:10.37,2013-01-09 09:08:00,
2013-01-09 04:13:00,23.5,21.3,29.91,NNW,338,3.5,3.5,91,0.00,CLR,,0.00,WeatherDisplay:10.37,2013-01-09 09:13:00,
2013-01-09 04:18:00,23.5,21.6,29.91,NNW,338,2.4,2.6,92,0.00,CLR,,0.00,WeatherDisplay:10.37,2013-01-09 09:18:00,
2013-01-09 04:23:00,23.5,21.6,29.88,North,0,4.6,4.6,92,0.00,CLR,,0.00,WeatherDisplay:10.37,2013-01-09 09:23:00,
2013-01-09 04:28:00,23.5,21.6,29.88,NNW,338,3.5,3.5,92,0.00,CLR,,0.00,WeatherDisplay:10.37,2013-01-09 09:28:00,
2013-01-09 04:33:00,23.7,22.0,29.88,NNW,338,3.5,3.5,93,0.00,CLR,,0.00,WeatherDisplay:10.37,2013-01-09 09:33:00,
2013-01-09 04:38:00,23.7,22.0,29.88,NNW,338,3.5,3.5,93,0.00,CLR,,0.00,WeatherDisplay:10.37,2013-01-09 09:38:00,
2013-01-09 04:43:00,23.9,22.2,29.88,NNW,338,3.5,3.5,93,0.00,CLR,,0.00,WeatherDisplay:10.37,2013-01-09 09:43:00,
2013-01-09 04:48:00,23.9,21.9,29.88,NNW,338,3.5,3.5,92,0.00,CLR,,0.00,WeatherDisplay:10.37,2013-01-09 09:48:00,
2013-01-09 04:53:00,23.7,21.7,29.91,North,0,2.4,2.4,92,0.00,CLR,,0.00,WeatherDisplay:10.37,2013-01-09 09:53:00,
2013-01-09 04:58:00,23.5,21.3,29.91,NNW,338,4.6,4.6,91,0.00,CLR,,0.00,WeatherDisplay:10.37,2013-01-09 09:58:00,
2013-01-09 05:03:00,23.5,21.6,29.91,NNW,338,4.6,4.6,92,0.00,CLR,,0.00,WeatherDisplay:10.37,2013-01-09 10:03:00,
2013-01-09 05:08:00,23.7,21.7,29.88,NNW,338,3.5,3.5,92,0.00,CLR,,0.00,WeatherDisplay:10.37,2013-01-09 10:08:00,
2013-01-09 05:13:00,24.1,22.6,29.88,NNW,338,3.1,3.1,94,0.00,CLR,,0.00,WeatherDisplay:10.37,2013-01-09 10:13:00,
2013-01-09 05:18:00,24.1,22.6,29.88,NNE,22,2.6,2.6,94,0.00,CLR,,0.00,WeatherDisplay:10.37,2013-01-09 10:18:00,
2013-01-09 05:23:00,23.9,22.2,29.91,NNW,338,2.3,2.3,93,0.00,CLR,,0.00,WeatherDisplay:10.37,2013-01-09 10:23:00,
2013-01-09 05:28:00,23.9,21.9,29.91,WNW,292,0.0,0.0,92,0.00,CLR,,0.00,WeatherDisplay:10.37,2013-01-09 10:28:00,
2013-01-09 05:33:00,23.9,21.7,29.91,NNW,338,3.5,3.5,91,0.00,CLR,,0.00,WeatherDisplay:10.37,2013-01-09 10:33:00,
2013-01-09 05:38:00,23.9,21.7,29.88,NNW,338,1.4,0.0,91,0.00,CLR,,0.00,WeatherDisplay:10.37,2013-01-09 10:38:00,
2013-01-09 05:43:00,23.9,21.7,29.88,North,0,2.2,2.2,91,0.00,CLR,,0.00,WeatherDisplay:10.37,2013-01-09 10:43:00,
2013-01-09 05:48:00,23.5,21.0,29.88,North,0,2.3,2.3,90,0.00,CLR,,0.00,WeatherDisplay:10.37,2013-01-09 10:48:00,
2013-01-09 05:53:00,23.4,20.9,29.88,NNE,22,4.6,4.6,90,0.00,CLR,,0.00,WeatherDisplay:10.37,2013-01-09 10:53:00,
2013-01-09 05:58:00,23.4,20.9,29.88,North,0,3.5,3.5,90,0.00,CLR,,0.00,WeatherDisplay:10.37,2013-01-09 10:58:00,
2013-01-09 06:03:00,23.4,21.1,29.88,North,0,2.3,2.4,91,0.00,CLR,,0.00,WeatherDisplay:10.37,2013-01-09 11:03:00,
2013-01-09 06:08:00,23.4,20.9,29.91,WNW,292,2.3,2.3,90,0.00,CLR,,0.00,WeatherDisplay:10.37,2013-01-09 11:08:00,
2013-01-09 06:13:00,23.5,21.0,29.91,NNW,338,2.3,2.3,90,0.00,CLR,,0.00,WeatherDisplay:10.37,2013-01-09 11:13:00,
2013-01-09 06:18:00,23.5,21.0,29.91,NNW,338,2.3,2.3,90,0.00,CLR,,0.00,WeatherDisplay:10.37,2013-01-09 11:18:00,
2013-01-09 06:23:00,23.5,21.0,29.91,NNW,338,2.3,2.3,90,0.00,CLR,,0.00,WeatherDisplay:10.37,2013-01-09 11:23:00,
2013-01-09 06:28:00,23.5,20.8,29.91,NNW,338,0.0,0.0,89,0.00,CLR,,0.00,WeatherDisplay:10.37,2013-01-09 11:28:00,
2013-01-09 06:33:00,23.5,20.8,29.91,NNW,338,0.0,0.0,89,0.00,CLR,,0.00,WeatherDisplay:10.37,2013-01-09 11:33:00,
2013-01-09 06:38:00,23.5,20.8,29.91,NNW,338,2.3,2.3,89,0.00,CLR,,0.00,WeatherDisplay:10.37,2013-01-09 11:38:00,
2013-01-09 06:43:00,23.4,20.6,29.91,NNE,22,2.4,2.4,89,0.00,CLR,,0.00,WeatherDisplay:10.37,2013-01-09 11:43:00,
2013-01-09 06:48:00,23.2,20.4,29.91,NNW,338,3.5,3.5,89,0.00,CLR,,0.00,WeatherDisplay:10.37,2013-01-09 11:48:00,
2013-01-09 06:53:00,23.0,20.5,29.91,North,0,3.5,3.5,90,0.00,CLR,,0.00,WeatherDisplay:10.37,2013-01-09 11:53:00,
2013-01-09 06:59:00,23.0,20.8,29.91,NNE,22,4.6,4.6,91,0.00,CLR,,0.00,WeatherDisplay:10.37,2013-01-09 11:59:00,
2013-01-09 07:04:00,23.7,21.7,29.91,NNE,22,4.6,4.6,92,0.00,CLR,,0.00,WeatherDisplay:10.37,2013-01-09 12:04:00,
2013-01-09 07:09:00,23.9,22.2,29.88,NNW,338,2.4,2.4,93,0.00,CLR,,0.00,WeatherDisplay:10.37,2013-01-09 12:09:00,
2013-01-09 07:14:00,23.7,22.0,29.88,NNW,338,3.8,3.8,93,0.00,CLR,,0.00,WeatherDisplay:10.37,2013-01-09 12:14:00,
2013-01-09 07:19:00,23.7,21.7,29.88,NNW,338,2.3,2.3,92,0.00,CLR,,0.00,WeatherDisplay:10.37,2013-01-09 12:19:00,
2013-01-09 07:24:00,23.9,21.9,29.91,SSW,202,0.0,0.0,92,0.00,CLR,,0.00,WeatherDisplay:10.37,2013-01-09 12:24:00,
2013-01-09 07:29:00,24.3,22.0,29.91,West,270,0.0,0.0,91,0.00,CLR,,0.00,WeatherDisplay:10.37,2013-01-09 12:29:00,
2013-01-09 07:34:00,24.4,22.2,29.91,WNW,292,2.3,2.3,91,0.00,CLR,,0.00,WeatherDisplay:10.37,2013-01-09 12:34:00,
2013-01-09 07:39:00,24.4,22.2,29.91,WNW,292,0.0,0.0,91,0.00,CLR,,0.00,WeatherDisplay:10.37,2013-01-09 12:39:00,
2013-01-09 07:44:00,24.4,22.2,29.91,NNE,22,1.4,1.6,91,0.00,CLR,,0.00,WeatherDisplay:10.37,2013-01-09 12:44:00,
2013-01-09 07:49:00,24.8,22.3,29.91,NNW,338,2.3,2.3,90,0.00,CLR,,0.00,WeatherDisplay:10.37,2013-01-09 12:49:00,
2013-01-09 07:54:00,24.8,22.3,29.91,NNW,338,3.5,3.5,90,0.00,CLR,,0.00,WeatherDisplay:10.37,2013-01-09 12:54:00,
2013-01-09 07:59:00,24.8,22.5,29.91,NNE,22,3.5,3.5,91,0.00,CLR,,0.00,WeatherDisplay:10.37,2013-01-09 12:59:00,
2013-01-09 08:04:00,25.0,22.7,29.91,North,0,3.5,3.5,91,0.00,CLR,,0.00,WeatherDisplay:10.37,2013-01-09 13:04:00,
2013-01-09 08:09:00,25.5,23.5,29.91,NNW,338,2.6,2.6,92,0.00,CLR,,0.00,WeatherDisplay:10.37,2013-01-09 13:09:00,
2013-01-09 08:14:00,25.9,24.1,29.91,NNW,338,2.9,2.9,93,0.00,CLR,,0.00,WeatherDisplay:10.37,2013-01-09 13:14:00,
2013-01-09 08:19:00,26.2,24.5,29.91,North,0,2.3,2.3,93,0.00,CLR,,0.00,WeatherDisplay:10.37,2013-01-09 13:19:00,
2013-01-09 08:24:00,26.8,24.8,29.91,NNE,22,2.3,2.3,92,0.00,CLR,,0.00,WeatherDisplay:10.37,2013-01-09 13:24:00,
2013-01-09 08:29:00,27.1,25.1,29.91,NNE,22,2.3,2.3,92,0.00,CLR,,0.00,WeatherDisplay:10.37,2013-01-09 13:29:00,
2013-01-09 08:34:00,27.3,25.0,29.91,NNW,338,3.5,3.5,91,0.00,CLR,,0.00,WeatherDisplay:10.37,2013-01-09 13:34:00,
2013-01-09 08:39:00,27.7,25.4,29.91,NNW,338,2.4,2.4,91,0.00,CLR,,0.00,WeatherDisplay:10.37,2013-01-09 13:39:00,
2013-01-09 08:44:00,27.9,25.8,29.91,NNE,22,3.5,3.5,92,0.00,CLR,,0.00,WeatherDisplay:10.37,2013-01-09 13:44:00,
2013-01-09 08:49:00,28.2,26.2,29.91,NNE,22,3.5,3.5,92,0.00,CLR,,0.00,WeatherDisplay:10.37,2013-01-09 13:49:00,
2013-01-09 08:54:00,28.6,26.6,29.91,North,0,3.6,3.6,92,0.00,CLR,,0.00,WeatherDisplay:10.37,2013-01-09 13:54:00,
2013-01-09 08:59:00,28.9,27.2,29.91,North,0,3.5,3.5,93,0.00,CLR,,0.00,WeatherDisplay:10.37,2013-01-09 13:59:00,
2013-01-09 09:04:00,29.3,27.5,29.91,NNE,22,3.6,3.6,93,0.00,CLR,,0.00,WeatherDisplay:10.37,2013-01-09 14:04:00,
2013-01-09 09:09:00,29.7,27.9,29.88,NNE,22,3.5,3.5,93,0.00,CLR,,0.00,WeatherDisplay:10.37,2013-01-09 14:09:00,
2013-01-09 09:14:00,30.0,28.2,29.88,NNW,338,4.6,4.6,93,0.00,CLR,,0.00,WeatherDisplay:10.37,2013-01-09 14:14:00,
2013-01-09 09:19:00,30.6,28.5,29.88,NNE,22,1.1,1.1,92,0.00,CLR,,0.00,WeatherDisplay:10.37,2013-01-09 14:19:00,
2013-01-09 09:24:00,31.1,29.0,29.88,NNE,22,2.3,2.3,92,0.00,CLR,,0.00,WeatherDisplay:10.37,2013-01-09 14:24:00,
2013-01-09 09:29:00,31.6,29.6,29.88,NNW,338,2.3,2.3,92,0.00,CLR,,0.00,WeatherDisplay:10.37,2013-01-09 14:29:00,
2013-01-09 09:35:00,32.2,30.1,29.88,NNE,22,0.0,0.0,92,0.00,CLR,,0.00,WeatherDisplay:10.37,2013-01-09 14:35:00,
2013-01-09 09:40:00,33.1,30.7,29.88,South,180,0.0,0.0,91,0.00,CLR,,0.00,WeatherDisplay:10.37,2013-01-09 14:40:00,
2013-01-09 09:45:00,33.8,31.5,29.88,South,180,0.0,0.0,91,0.00,CLR,,0.00,WeatherDisplay:10.37,2013-01-09 14:45:00,
2013-01-09 09:50:00,34.9,32.8,29.88,South,180,1.1,0.0,92,0.00,CLR,,0.00,WeatherDisplay:10.37,2013-01-09 14:50:00,
2013-01-09 09:55:00,35.8,33.7,29.91,ESE,112,2.3,2.3,92,0.00,CLR,,0.00,WeatherDisplay:10.37,2013-01-09 14:55:00,
2013-01-09 10:00:00,37.0,34.9,29.91,SSE,158,2.3,2.3,92,0.00,CLR,,0.00,WeatherDisplay:10.37,2013-01-09 15:00:00,
2013-01-09 10:05:00,37.8,35.6,29.91,ENE,68,2.4,2.4,92,0.00,CLR,,0.00,WeatherDisplay:10.37,2013-01-09 15:05:00,
2013-01-09 10:10:00,38.3,35.6,29.91,NNE,22,2.6,2.6,90,0.00,CLR,,0.00,WeatherDisplay:10.37,2013-01-09 15:10:00,
2013-01-09 10:15:00,38.7,35.7,29.91,NE,45,1.4,1.4,89,0.00,CLR,,0.00,WeatherDisplay:10.37,2013-01-09 15:15:00,
2013-01-09 10:20:00,39.6,36.3,29.91,NNE,22,2.3,2.3,88,0.00,CLR,,0.00,WeatherDisplay:10.37,2013-01-09 15:20:00,
2013-01-09 10:25:00,40.3,36.7,29.88,NNE,22,2.3,2.3,87,0.00,CLR,,0.00,WeatherDisplay:10.37,2013-01-09 15:25:00,
2013-01-09 10:30:00,41.2,37.3,29.88,SSW,202,1.6,1.6,86,0.00,CLR,,0.00,WeatherDisplay:10.37,2013-01-09 15:30:00,
2013-01-09 10:35:00,41.5,36.8,29.88,SSW,202,2.3,2.3,83,0.00,CLR,,0.00,WeatherDisplay:10.37,2013-01-09 15:35:00,
2013-01-09 10:40:00,41.7,35.0,29.88,SSW,202,3.5,3.5,77,0.00,CLR,,0.00,WeatherDisplay:10.37,2013-01-09 15:40:00,
2013-01-09 10:45:00,42.1,35.1,29.88,SSE,158,3.5,3.5,76,0.00,CLR,,0.00,WeatherDisplay:10.37,2013-01-09 15:45:00,
2013-01-09 10:50:00,42.6,35.6,29.88,SSE,158,4.3,4.3,76,0.00,CLR,,0.00,WeatherDisplay:10.37,2013-01-09 15:50:00,
2013-01-09 10:55:00,43.7,36.3,29.85,SSW,202,3.5,3.5,75,0.00,CLR,,0.00,WeatherDisplay:10.37,2013-01-09 15:55:00,
2013-01-09 11:00:00,44.8,35.9,29.85,SSW,202,3.5,3.5,71,0.00,CLR,,0.00,WeatherDisplay:10.37,2013-01-09 16:00:00,
2013-01-09 11:05:00,45.1,36.3,29.85,WSW,248,2.3,2.3,71,0.00,CLR,,0.00,WeatherDisplay:10.37,2013-01-09 16:05:00,
2013-01-09 11:10:00,46.2,37.7,29.85,SSW,202,2.3,0.0,72,0.00,CLR,,0.00,WeatherDisplay:10.37,2013-01-09 16:10:00,
2013-01-09 11:15:00,45.3,35.0,29.85,SSW,202,2.3,2.3,67,0.00,CLR,,0.00,WeatherDisplay:10.37,2013-01-09 16:15:00,
2013-01-09 11:20:00,44.6,34.7,29.85,SSW,202,4.6,4.6,68,0.00,CLR,,0.00,WeatherDisplay:10.37,2013-01-09 16:20:00,
2013-01-09 11:25:00,44.6,35.4,29.85,WSW,248,3.5,3.5,70,0.00,CLR,,0.00,WeatherDisplay:10.37,2013-01-09 16:25:00,
2013-01-09 11:30:00,44.1,34.5,29.85,SSW,202,3.5,3.5,69,0.00,CLR,,0.00,WeatherDisplay:10.37,2013-01-09 16:30:00,
2013-01-09 11:35:00,43.7,34.6,29.85,SSW,202,4.7,4.7,70,0.00,CLR,,0.00,WeatherDisplay:10.37,2013-01-09 16:35:00,
2013-01-09 11:40:00,43.0,33.9,29.85,SSW,202,2.3,2.3,70,0.00,CLR,,0.00,WeatherDisplay:10.37,2013-01-09 16:40:00,
2013-01-09 11:45:00,42.8,34.0,29.85,SSW,202,1.4,1.4,71,0.00,CLR,,0.00,WeatherDisplay:10.37,2013-01-09 16:45:00,
2013-01-09 11:50:00,42.4,34.0,29.85,SSW,202,2.3,2.3,72,0.00,CLR,,0.00,WeatherDisplay:10.37,2013-01-09 16:50:00,
2013-01-09 11:55:00,42.3,34.2,29.83,SSW,202,1.1,0.0,73,0.00,CLR,,0.00,WeatherDisplay:10.37,2013-01-09 16:55:00,
2013-01-09 12:00:00,42.1,34.0,29.83,WSW,248,2.3,2.3,73,0.00,CLR,,0.00,WeatherDisplay:10.37,2013-01-09 17:00:00,
2013-01-09 12:05:00,41.7,33.7,29.83,SW,225,0.9,0.0,73,0.00,CLR,,0.00,WeatherDisplay:10.37,2013-01-09 17:05:00,
2013-01-09 12:10:00,41.5,33.9,29.85,WSW,248,3.5,3.5,74,0.00,CLR,,0.00,WeatherDisplay:10.37,2013-01-09 17:10:00,
2013-01-09 12:15:00,41.4,33.7,29.85,SW,225,1.4,1.4,74,0.00,CLR,,0.00,WeatherDisplay:10.37,2013-01-09 17:15:00,
2013-01-09 12:20:00,41.4,34.0,29.85,SSW,202,2.3,2.3,75,0.00,CLR,,0.00,WeatherDisplay:10.37,2013-01-09 17:20:00,
2013-01-09 12:25:00,41.5,34.2,29.85,SSW,202,1.1,1.1,75,0.00,CLR,,0.00,WeatherDisplay:10.37,2013-01-09 17:25:00,
2013-01-09 12:30:00,41.7,34.4,29.85,SW,225,3.1,3.1,75,0.00,CLR,,0.00,WeatherDisplay:10.37,2013-01-09 17:30:00,
2013-01-09 12:35:00,42.3,35.2,29.85,SSW,202,3.5,3.5,76,0.00,CLR,,0.00,WeatherDisplay:10.37,2013-01-09 17:35:00,
2013-01-09 12:40:00,42.3,34.9,29.85,SSW,202,3.5,3.5,75,0.00,CLR,,0.00,WeatherDisplay:10.37,2013-01-09 17:40:00,
2013-01-09 12:45:00,42.3,34.9,29.85,SSE,158,4.6,4.6,75,0.00,CLR,,0.00,WeatherDisplay:10.37,2013-01-09 17:45:00,
2013-01-09 12:50:00,42.3,34.9,29.85,SSW,202,3.1,3.1,75,0.00,CLR,,0.00,WeatherDisplay:10.37,2013-01-09 17:50:00,
2013-01-09 12:55:00,42.1,34.7,29.85,WSW,248,2.3,2.3,75,0.00,CLR,,0.00,WeatherDisplay:10.37,2013-01-09 17:55:00,
2013-01-09 13:00:00,42.1,35.1,29.85,SSW,202,1.1,0.0,76,0.00,CLR,,0.00,WeatherDisplay:10.37,2013-01-09 18:00:00,
2013-01-09 13:05:00,41.7,35.0,29.85,SSE,158,3.5,3.5,77,0.00,CLR,,0.00,WeatherDisplay:10.37,2013-01-09 18:05:00,
2013-01-09 13:10:00,41.5,34.9,29.83,SSE,158,2.4,2.4,77,0.00,CLR,,0.00,WeatherDisplay:10.37,2013-01-09 18:10:00,
2013-01-09 13:15:00,41.5,35.2,29.83,SE,135,3.5,3.5,78,0.00,CLR,,0.00,WeatherDisplay:10.37,2013-01-09 18:15:00,
2013-01-09 13:20:00,41.7,35.7,29.83,SSE,158,3.5,3.5,79,0.00,CLR,,0.00,WeatherDisplay:10.37,2013-01-09 18:20:00,
2013-01-09 13:25:00,41.9,36.5,29.80,SSE,158,5.8,5.8,81,0.00,CLR,,0.00,WeatherDisplay:10.37,2013-01-09 18:25:00,
2013-01-09 13:30:00,42.3,36.8,29.80,SSE,158,5.8,5.8,81,0.00,CLR,,0.00,WeatherDisplay:10.37,2013-01-09 18:30:00,
2013-01-09 13:35:00,42.3,36.5,29.80,SE,135,4.6,4.6,80,0.00,CLR,,0.00,WeatherDisplay:10.37,2013-01-09 18:35:00,
2013-01-09 13:40:00,42.3,36.2,29.77,ESE,112,4.6,4.6,79,0.00,CLR,,0.00,WeatherDisplay:10.37,2013-01-09 18:40:00,
2013-01-09 13:41:00,42.3,36.2,29.77,East,90,6.0,6.0,79,0.00,CLR,,0.00,WeatherDisplay:10.37,2013-01-09 18:41:00,
2013-01-09 13:42:00,42.3,36.2,29.77,SSW,202,5.8,5.8,79,0.00,CLR,,0.00,WeatherDisplay:10.37,2013-01-09 18:42:00,
2013-01-09 13:44:00,42.3,36.2,29.77,SE,135,4.6,4.6,79,0.00,CLR,,0.00,WeatherDisplay:10.37,2013-01-09 18:44:00,
2013-01-09 13:45:00,42.1,36.4,29.77,SSW,202,4.6,4.6,80,0.00,CLR,,0.00,WeatherDisplay:10.37,2013-01-09 18:45:00,
2013-01-09 13:48:00,42.1,36.4,29.77,SSW,202,3.5,3.5,80,0.00,CLR,,0.00,WeatherDisplay:10.37,2013-01-09 18:48:00,
2013-01-09 13:53:00,42.1,36.7,29.77,SW,225,3.5,3.5,81,0.00,CLR,,0.00,WeatherDisplay:10.37,2013-01-09 18:53:00,
2013-01-09 13:58:00,42.1,37.0,29.77,South,180,3.5,3.5,82,0.00,CLR,,0.00,WeatherDisplay:10.37,2013-01-09 18:58:00,
2013-01-09 14:03:00,42.1,37.0,29.77,SSE,158,6.9,6.9,82,0.00,CLR,,0.00,WeatherDisplay:10.37,2013-01-09 19:03:00,
2013-01-09 14:08:00,42.1,36.7,29.74,SSW,202,3.5,3.5,81,0.00,CLR,,0.00,WeatherDisplay:10.37,2013-01-09 19:08:00,
2013-01-09 14:13:00,42.1,36.7,29.74,SSW,202,4.6,4.6,81,0.00,CLR,,0.00,WeatherDisplay:10.37,2013-01-09 19:13:00,
2013-01-09 14:18:00,42.1,36.7,29.74,WSW,248,3.5,3.5,81,0.00,CLR,,0.00,WeatherDisplay:10.37,2013-01-09 19:18:00,
2013-01-09 14:23:00,42.1,36.7,29.74,WSW,248,3.5,3.5,81,0.00,CLR,,0.00,WeatherDisplay:10.37,2013-01-09 19:23:00,
2013-01-09 14:28:00,41.9,36.5,29.74,SSW,202,2.6,2.6,81,0.00,CLR,,0.00,WeatherDisplay:10.37,2013-01-09 19:28:00,
2013-01-09 14:33:00,41.7,36.6,29.74,WSW,248,2.3,2.3,82,0.00,CLR,,0.00,WeatherDisplay:10.37,2013-01-09 19:33:00,
2013-01-09 14:38:00,41.7,36.6,29.71,WSW,248,2.3,2.3,82,0.00,CLR,,0.00,WeatherDisplay:10.37,2013-01-09 19:38:00,
2013-01-09 14:43:00,41.7,36.6,29.71,WSW,248,2.3,2.3,82,0.00,CLR,,0.00,WeatherDisplay:10.37,2013-01-09 19:43:00,
2013-01-09 14:48:00,41.5,36.5,29.71,SSW,202,0.0,0.0,82,0.00,CLR,,0.00,WeatherDisplay:10.37,2013-01-09 19:48:00,
2013-01-09 14:53:00,41.5,36.5,29.71,WSW,248,2.3,2.3,82,0.00,CLR,,0.00,WeatherDisplay:10.37,2013-01-09 19:53:00,
2013-01-09 14:58:00,41.5,36.8,29.71,South,180,1.1,0.0,83,0.00,CLR,,0.00,WeatherDisplay:10.37,2013-01-09 19:58:00,
2013-01-09 15:03:00,41.5,36.8,29.71,SSE,158,1.4,0.0,83,0.00,CLR,,0.00,WeatherDisplay:10.37,2013-01-09 20:03:00,
2013-01-09 15:09:00,41.5,37.1,29.77,South,180,2.3,2.3,84,0.00,CLR,,0.00,WeatherDisplay:10.37,2013-01-09 20:09:00,
2013-01-09 15:14:00,41.5,36.8,29.77,WSW,248,1.1,1.1,83,0.00,CLR,,0.00,WeatherDisplay:10.37,2013-01-09 20:14:00,
2013-01-09 15:19:00,41.7,36.9,29.77,SSW,202,1.1,0.0,83,0.00,CLR,,0.00,WeatherDisplay:10.37,2013-01-09 20:19:00,
2013-01-09 15:24:00,41.7,37.2,29.74,SSW,202,2.3,2.3,84,0.00,CLR,,0.00,WeatherDisplay:10.37,2013-01-09 20:24:00,
2013-01-09 15:29:00,41.7,37.2,29.74,SSE,158,1.1,0.0,84,0.00,CLR,,0.00,WeatherDisplay:10.37,2013-01-09 20:29:00,
2013-01-09 15:34:00,41.9,37.4,29.74,SW,225,1.1,0.0,84,0.00,CLR,,0.00,WeatherDisplay:10.37,2013-01-09 20:34:00,
2013-01-09 15:39:00,41.9,37.4,29.74,SSW,202,0.0,0.0,84,0.00,CLR,,0.00,WeatherDisplay:10.37,2013-01-09 20:39:00,
2013-01-09 15:44:00,42.1,37.6,29.74,SSW,202,2.9,0.0,84,0.00,CLR,,0.00,WeatherDisplay:10.37,2013-01-09 20:44:00,
2013-01-09 15:49:00,42.3,37.8,29.74,SSW,202,2.0,2.0,84,0.00,CLR,,0.00,WeatherDisplay:10.37,2013-01-09 20:49:00,
2013-01-09 15:54:00,42.4,37.9,29.71,SSW,202,2.6,2.6,84,0.00,CLR,,0.00,WeatherDisplay:10.37,2013-01-09 20:54:00,
2013-01-09 15:59:00,42.4,37.9,29.71,South,180,3.5,3.5,84,0.00,CLR,,0.00,WeatherDisplay:10.37,2013-01-09 20:59:00,
2013-01-09 16:04:00,42.4,37.9,29.71,SSW,202,2.4,2.4,84,0.00,CLR,,0.00,WeatherDisplay:10.37,2013-01-09 21:04:00,
2013-01-09 16:09:00,42.4,37.9,29.74,SSW,202,3.5,3.5,84,0.00,CLR,,0.00,WeatherDisplay:10.37,2013-01-09 21:09:00,
2013-01-09 16:14:00,42.4,37.9,29.74,SSW,202,2.6,2.6,84,0.00,CLR,,0.00,WeatherDisplay:10.37,2013-01-09 21:14:00,
2013-01-09 16:19:00,42.3,37.8,29.74,SSW,202,3.5,3.5,84,0.00,CLR,,0.00,WeatherDisplay:10.37,2013-01-09 21:19:00,
2013-01-09 16:24:00,42.1,37.6,29.74,SSW,202,2.4,2.4,84,0.00,CLR,,0.00,WeatherDisplay:10.37,2013-01-09 21:24:00,
2013-01-09 16:29:00,41.9,37.4,29.74,SSW,202,3.5,3.5,84,0.00,CLR,,0.00,WeatherDisplay:10.37,2013-01-09 21:29:00,
2013-01-09 16:34:00,41.9,37.7,29.74,SSW,202,5.8,5.8,85,0.00,CLR,,0.00,WeatherDisplay:10.37,2013-01-09 21:34:00,
2013-01-09 16:39:00,41.9,37.7,29.74,South,180,3.5,3.5,85,0.00,CLR,,0.00,WeatherDisplay:10.37,2013-01-09 21:39:00,
2013-01-09 16:44:00,41.7,37.2,29.74,WSW,248,2.3,2.4,84,0.00,CLR,,0.00,WeatherDisplay:10.37,2013-01-09 21:44:00,
2013-01-09 16:49:00,41.7,37.2,29.74,SSW,202,3.8,3.8,84,0.00,CLR,,0.00,WeatherDisplay:10.37,2013-01-09 21:49:00,
2013-01-09 16:54:00,41.7,37.5,29.77,SSW,202,3.5,3.5,85,0.00,CLR,,0.00,WeatherDisplay:10.37,2013-01-09 21:54:00,
2013-01-09 16:59:00,41.7,37.5,29.77,SSW,202,2.4,2.4,85,0.00,CLR,,0.00,WeatherDisplay:10.37,2013-01-09 21:59:00,
2013-01-09 17:04:00,41.5,37.4,29.77,SSW,202,2.6,2.6,85,0.00,CLR,,0.00,WeatherDisplay:10.37,2013-01-09 22:04:00,
2013-01-09 17:09:00,41.5,37.1,29.77,SSW,202,2.3,2.3,84,0.00,CLR,,0.00,WeatherDisplay:10.37,2013-01-09 22:09:00,
2013-01-09 17:14:00,41.2,36.7,29.77,SSW,202,0.0,0.0,84,0.00,CLR,,0.00,WeatherDisplay:10.37,2013-01-09 22:14:00,
2013-01-09 17:19:00,41.0,36.5,29.77,SSW,202,2.3,2.3,84,0.00,CLR,,0.00,WeatherDisplay:10.37,2013-01-09 22:19:00,
2013-01-09 17:24:00,40.5,36.0,29.77,SSW,202,1.4,1.4,84,0.00,CLR,,0.00,WeatherDisplay:10.37,2013-01-09 22:24:00,
2013-01-09 17:29:00,39.9,35.5,29.77,SSW,202,2.3,2.3,84,0.00,CLR,,0.00,WeatherDisplay:10.37,2013-01-09 22:29:00,
2013-01-09 17:34:00,39.6,35.1,29.77,SSW,202,2.3,2.3,84,0.00,CLR,,0.00,WeatherDisplay:10.37,2013-01-09 22:34:00,
2013-01-09 17:39:00,39.2,34.8,29.80,WSW,248,2.3,2.3,84,0.00,CLR,,0.00,WeatherDisplay:10.37,2013-01-09 22:39:00,
2013-01-09 17:44:00,38.8,34.7,29.80,SSW,202,1.1,0.0,85,0.00,CLR,,0.00,WeatherDisplay:10.37,2013-01-09 22:44:00,
2013-01-09 17:49:00,38.5,34.4,29.80,SSW,202,2.3,2.3,85,0.00,CLR,,0.00,WeatherDisplay:10.37,2013-01-09 22:49:00,
2013-01-09 17:54:00,38.1,34.3,29.77,SSW,202,2.3,2.3,86,0.00,CLR,,0.00,WeatherDisplay:10.37,2013-01-09 22:54:00,
2013-01-09 17:59:00,37.9,34.1,29.77,SSW,202,2.4,2.4,86,0.00,CLR,,0.00,WeatherDisplay:10.37,2013-01-09 22:59:00,
2013-01-09 18:04:00,37.9,34.1,29.77,SW,225,1.1,1.4,86,0.00,CLR,,0.00,WeatherDisplay:10.37,2013-01-09 23:04:00,
2013-01-09 18:09:00,37.6,33.8,29.83,WSW,248,0.0,0.0,86,0.00,CLR,,0.00,WeatherDisplay:10.37,2013-01-09 23:09:00,
2013-01-09 18:14:00,37.4,33.9,29.83,SSE,158,3.6,3.6,87,0.00,CLR,,0.00,WeatherDisplay:10.37,2013-01-09 23:14:00,
2013-01-09 18:19:00,37.6,34.6,29.83,South,180,4.6,4.6,89,0.00,CLR,,0.00,WeatherDisplay:10.37,2013-01-09 23:19:00,
2013-01-09 18:24:00,37.0,34.1,29.80,SSW,202,2.3,2.6,89,0.00,CLR,,0.00,WeatherDisplay:10.37,2013-01-09 23:24:00,
2013-01-09 18:29:00,36.9,33.9,29.80,SSW,202,2.3,2.3,89,0.00,CLR,,0.00,WeatherDisplay:10.37,2013-01-09 23:29:00,
2013-01-09 18:34:00,36.5,33.3,29.80,SSW,202,2.6,2.6,88,0.00,CLR,,0.00,WeatherDisplay:10.37,2013-01-09 23:34:00,
2013-01-09 18:39:00,36.1,32.9,29.80,SSW,202,2.6,2.6,88,0.00,CLR,,0.00,WeatherDisplay:10.37,2013-01-09 23:39:00,
2013-01-09 18:44:00,36.1,33.2,29.80,SSW,202,3.5,3.5,89,0.00,CLR,,0.00,WeatherDisplay:10.37,2013-01-09 23:44:00,
2013-01-09 18:49:00,35.8,32.9,29.80,SSW,202,2.3,2.3,89,0.00,CLR,,0.00,WeatherDisplay:10.37,2013-01-09 23:49:00,
2013-01-09 18:54:00,35.8,32.9,29.77,SW,225,2.9,2.9,89,0.00,CLR,,0.00,WeatherDisplay:10.37,2013-01-09 23:54:00,
2013-01-09 18:59:00,35.4,32.8,29.77,SSW,202,3.5,3.5,90,0.00,CLR,,0.00,WeatherDisplay:10.37,2013-01-09 23:59:00,
2013-01-09 19:04:00,35.4,32.8,29.77,WSW,248,2.3,2.3,90,0.00,CLR,,0.00,WeatherDisplay:10.37,2013-01-10 00:04:00,
2013-01-09 19:09:00,35.2,32.6,29.80,SSW,202,2.6,2.6,90,0.00,CLR,,0.00,WeatherDisplay:10.37,2013-01-10 00:09:00,
2013-01-09 19:14:00,35.2,32.9,29.80,SSW,202,3.5,3.5,91,0.00,CLR,,0.00,WeatherDisplay:10.37,2013-01-10 00:14:00,
2013-01-09 19:19:00,35.1,32.7,29.80,SSW,202,3.5,3.5,91,0.00,CLR,,0.00,WeatherDisplay:10.37,2013-01-10 00:19:00,
2013-01-09 19:24:00,35.1,32.7,29.80,WSW,248,2.3,2.3,91,0.00,CLR,,0.00,WeatherDisplay:10.37,2013-01-10 00:24:00,
2013-01-09 19:29:00,34.9,32.5,29.80,WSW,248,2.3,2.3,91,0.00,CLR,,0.00,WeatherDisplay:10.37,2013-01-10 00:29:00,
2013-01-09 19:34:00,34.7,32.3,29.80,SSW,202,3.5,3.5,91,0.00,CLR,,0.00,WeatherDisplay:10.37,2013-01-10 00:34:00,
2013-01-09 19:39:00,34.7,32.3,29.80,WSW,248,1.1,1.4,91,0.00,CLR,,0.00,WeatherDisplay:10.37,2013-01-10 00:39:00,
2013-01-09 19:44:00,34.5,32.2,29.80,South,180,2.6,2.6,91,0.00,CLR,,0.00,WeatherDisplay:10.37,2013-01-10 00:44:00,
2013-01-09 19:49:00,34.3,32.0,29.80,SSW,202,2.6,2.6,91,0.00,CLR,,0.00,WeatherDisplay:10.37,2013-01-10 00:49:00,
2013-01-09 19:54:00,34.3,32.3,29.80,SSW,202,2.3,2.3,92,0.00,CLR,,0.00,WeatherDisplay:10.37,2013-01-10 00:54:00,
2013-01-09 19:59:00,34.5,32.4,29.80,SSW,202,4.6,4.6,92,0.00,CLR,,0.00,WeatherDisplay:10.37,2013-01-10 00:59:00,
2013-01-09 20:04:00,34.5,32.7,29.80,SSW,202,4.6,4.6,93,0.00,CLR,,0.00,WeatherDisplay:10.37,2013-01-10 01:04:00,
2013-01-09 20:09:00,34.5,32.7,29.80,SSW,202,3.1,3.1,93,0.00,CLR,,0.00,WeatherDisplay:10.37,2013-01-10 01:09:00,
2013-01-09 20:14:00,34.3,32.8,29.80,SSW,202,2.4,2.4,94,0.00,CLR,,0.00,WeatherDisplay:10.37,2013-01-10 01:14:00,
2013-01-09 20:19:00,34.3,32.5,29.80,WSW,248,2.3,2.4,93,0.00,CLR,,0.00,WeatherDisplay:10.37,2013-01-10 01:19:00,
2013-01-09 20:24:00,34.2,32.3,29.80,WSW,248,2.9,2.9,93,0.00,CLR,,0.00,WeatherDisplay:10.37,2013-01-10 01:24:00,
2013-01-09 20:29:00,34.0,32.2,29.80,SW,225,2.4,2.4,93,0.00,CLR,,0.00,WeatherDisplay:10.37,2013-01-10 01:29:00,
2013-01-09 20:34:00,34.0,32.2,29.80,SSW,202,2.6,2.6,93,0.00,CLR,,0.00,WeatherDisplay:10.37,2013-01-10 01:34:00,
2013-01-09 20:40:00,33.8,32.0,29.83,SSW,202,2.3,2.3,93,0.00,CLR,,0.00,WeatherDisplay:10.37,2013-01-10 01:40:00,
2013-01-09 20:44:00,33.8,32.0,29.83,SSW,202,3.5,3.5,93,0.00,CLR,,0.00,WeatherDisplay:10.37,2013-01-10 01:44:00,
2013-01-09 20:49:00,33.8,32.3,29.83,SSW,202,2.4,2.4,94,0.00,CLR,,0.00,WeatherDisplay:10.37,2013-01-10 01:49:00,
2013-01-09 20:55:00,33.8,32.3,29.83,SSW,202,2.6,2.6,94,0.00,CLR,,0.00,WeatherDisplay:10.37,2013-01-10 01:55:00,
2013-01-09 21:00:00,33.6,32.1,29.83,SSW,202,2.3,2.3,94,0.00,CLR,,0.00,WeatherDisplay:10.37,2013-01-10 02:00:00,
2013-01-09 21:05:00,33.4,31.9,29.83,SSW,202,2.3,2.3,94,0.00,CLR,,0.00,WeatherDisplay:10.37,2013-01-10 02:05:00,
2013-01-09 21:10:00,33.4,31.9,29.83,SSE,158,3.5,3.5,94,0.00,CLR,,0.00,WeatherDisplay:10.37,2013-01-10 02:10:00,
2013-01-09 21:15:00,33.6,32.3,29.83,SSW,202,3.5,3.5,95,0.00,CLR,,0.00,WeatherDisplay:10.37,2013-01-10 02:15:00,
2013-01-09 21:20:00,33.6,32.3,29.83,SSW,202,2.4,2.4,95,0.00,CLR,,0.00,WeatherDisplay:10.37,2013-01-10 02:20:00,
2013-01-09 21:25:00,33.8,32.5,29.83,SSW,202,2.4,2.4,95,0.00,CLR,,0.00,WeatherDisplay:10.37,2013-01-10 02:25:00,
2013-01-09 21:30:00,33.8,32.5,29.83,SSW,202,3.5,3.5,95,0.00,CLR,,0.00,WeatherDisplay:10.37,2013-01-10 02:30:00,
2013-01-09 21:35:00,33.6,32.6,29.83,SSW,202,2.6,2.6,96,0.00,CLR,,0.00,WeatherDisplay:10.37,2013-01-10 02:35:00,
2013-01-09 21:40:00,33.6,32.3,29.83,SSW,202,2.6,2.6,95,0.00,CLR,,0.00,WeatherDisplay:10.37,2013-01-10 02:40:00,
2013-01-09 21:45:00,33.4,32.2,29.83,SSW,202,3.5,3.5,95,0.00,CLR,,0.00,WeatherDisplay:10.37,2013-01-10 02:45:00,
2013-01-09 21:50:00,33.6,32.3,29.83,SSW,202,3.5,3.5,95,0.00,CLR,,0.00,WeatherDisplay:10.37,2013-01-10 02:50:00,
2013-01-09 21:55:00,33.6,32.6,29.83,SSW,202,3.5,3.5,96,0.00,CLR,,0.00,WeatherDisplay:10.37,2013-01-10 02:55:00,
2013-01-09 22:00:00,33.6,32.6,29.83,SSW,202,3.5,3.5,96,0.00,CLR,,0.00,WeatherDisplay:10.37,2013-01-10 03:00:00,
2013-01-09 22:05:00,33.4,32.4,29.83,SSW,202,3.5,3.5,96,0.00,CLR,,0.00,WeatherDisplay:10.37,2013-01-10 03:05:00,
2013-01-09 22:10:00,33.3,32.2,29.83,SSW,202,3.5,3.5,96,0.00,CLR,,0.00,WeatherDisplay:10.37,2013-01-10 03:10:00,
2013-01-09 22:15:00,33.3,32.2,29.83,SSW,202,2.3,2.3,96,0.00,CLR,,0.00,WeatherDisplay:10.37,2013-01-10 03:15:00,
2013-01-09 22:20:00,33.1,32.1,29.83,West,270,2.3,2.3,96,0.00,CLR,,0.00,WeatherDisplay:10.37,2013-01-10 03:20:00,
2013-01-09 22:25:00,33.1,32.1,29.83,South,180,4.6,4.6,96,0.00,CLR,,0.00,WeatherDisplay:10.37,2013-01-10 03:25:00,
2013-01-09 22:30:00,33.1,32.1,29.83,SSW,202,2.3,2.3,96,0.00,CLR,,0.00,WeatherDisplay:10.37,2013-01-10 03:30:00,
2013-01-09 22:35:00,33.1,32.1,29.83,SSW,202,3.5,3.5,96,0.00,CLR,,0.00,WeatherDisplay:10.37,2013-01-10 03:35:00,
2013-01-09 22:40:00,33.3,32.2,29.83,WSW,248,3.5,3.5,96,0.00,CLR,,0.00,WeatherDisplay:10.37,2013-01-10 03:40:00,
2013-01-09 22:45:00,33.1,32.1,29.83,South,180,2.3,2.3,96,0.00,CLR,,0.00,WeatherDisplay:10.37,2013-01-10 03:45:00,
2013-01-09 22:50:00,33.1,32.1,29.83,South,180,2.4,2.4,96,0.00,CLR,,0.00,WeatherDisplay:10.37,2013-01-10 03:50:00,
2013-01-09 22:55:00,33.1,32.1,29.85,South,180,2.3,2.3,96,0.00,CLR,,0.00,WeatherDisplay:10.37,2013-01-10 03:55:00,
2013-01-09 23:00:00,32.9,31.9,29.85,SW,225,3.5,3.5,96,0.00,CLR,,0.00,WeatherDisplay:10.37,2013-01-10 04:00:00,
2013-01-09 23:05:00,32.7,31.7,29.85,SSW,202,2.4,2.4,96,0.00,CLR,,0.00,WeatherDisplay:10.37,2013-01-10 04:05:00,
2013-01-09 23:10:00,33.1,32.1,29.85,SSW,202,3.5,3.5,96,0.00,CLR,,0.00,WeatherDisplay:10.37,2013-01-10 04:10:00,
2013-01-09 23:15:00,32.9,31.9,29.85,SSW,202,2.3,2.3,96,0.00,CLR,,0.00,WeatherDisplay:10.37,2013-01-10 04:15:00,
2013-01-09 23:20:00,33.3,32.2,29.85,SSW,202,4.6,4.6,96,0.00,CLR,,0.00,WeatherDisplay:10.37,2013-01-10 04:20:00,
2013-01-09 23:25:00,33.1,32.1,29.85,WSW,248,1.1,0.0,96,0.00,CLR,,0.00,WeatherDisplay:10.37,2013-01-10 04:25:00,
2013-01-09 23:30:00,32.9,31.9,29.85,South,180,2.3,0.0,96,0.00,CLR,,0.00,WeatherDisplay:10.37,2013-01-10 04:30:00,
2013-01-09 23:35:00,32.7,31.4,29.85,SSE,158,3.5,3.5,95,0.00,CLR,,0.00,WeatherDisplay:10.37,2013-01-10 04:35:00,
2013-01-09 23:40:00,32.7,31.4,29.85,SW,225,0.0,0.0,95,0.00,CLR,,0.00,WeatherDisplay:10.37,2013-01-10 04:40:00,
2013-01-09 23:45:00,32.5,31.3,29.85,SSW,202,1.1,0.0,95,0.00,CLR,,0.00,WeatherDisplay:10.37,2013-01-10 04:45:00,
2013-01-09 23:50:00,32.7,31.7,29.85,WSW,248,1.1,1.1,96,0.00,CLR,,0.00,WeatherDisplay:10.37,2013-01-10 04:50:00,
2013-01-09 23:55:00,32.5,31.3,29.85,WNW,292,3.3,3.3,95,0.00,CLR,,0.00,WeatherDisplay:10.37,2013-01-10 04:55:00,